TimeMDT,TemperatureF,Dew PointF,Humidity,Sea Level PressureIn,VisibilityMPH,Wind Direction,Wind SpeedMPH,Gust SpeedMPH,PrecipitationIn,Events,Conditions,WindDirDegrees,DateUTC
12:53 AM,64.9,50.0,58,29.96,10.0,North,3.5,-,N/A,,Clear,360,2013-07-15 06:53:00
1:53 AM,66.0,50.0,56,29.95,10.0,ENE,6.9,-,N/A,,Clear,70,2013-07-15 07:53:00
2:53 AM,66.0,48.9,54,29.93,10.0,East,9.2,-,N/A,,Clear,80,2013-07-15 08:53:00
3:53 AM,64.0,48.9,58,29.94,10.0,East,5.8,-,N/A,,Clear,90,2013-07-15 09:53:00
4:53 AM,64.9,48.9,56,29.94,10.0,ENE,6.9,-,N/A,,Clear,70,2013-07-15 10:53:00
5:53 AM,60.1,48.9,67,29.94,10.0,North,5.8,-,N/A,,Clear,10,2013-07-15 11:53:00
6:53 AM,60.1,48.9,67,29.97,10.0,Calm,Calm,-,N/A,,Clear,0,2013-07-15 12:53:00
7:53 AM,66.0,48.9,54,29.97,10.0,Variable,3.5,-,N/A,,Clear,0,2013-07-15 13:53:00
8:53 AM,72.0,50.0,46,29.96,10.0,Calm,Calm,-,N/A,,Clear,0,2013-07-15 14:53:00
9:53 AM,77.0,50.0,39,29.94,10.0,NNE,6.9,-,N/A,,Clear,20,2013-07-15 15:53:00
10:53 AM,80.1,48.9,34,29.93,10.0,Variable,5.8,-,N/A,,Clear,0,2013-07-15 16:53:00
11:53 AM,86.0,46.9,26,29.90,10.0,NNE,6.9,-,N/A,,Clear,30,2013-07-15 17:53:00
12:53 PM,87.1,44.1,22,29.88,10.0,Variable,3.5,-,N/A,,Clear,0,2013-07-15 18:53:00
1:53 PM,90.0,43.0,19,29.84,10.0,SE,6.9,-,N/A,,Clear,130,2013-07-15 19:53:00
2:53 PM,90.0,41.0,18,29.81,10.0,WSW,6.9,-,N/A,,Clear,240,2013-07-15 20:53:00
3:53 PM,93.0,43.0,18,29.78,10.0,ENE,15.0,-,N/A,,Mostly Cloudy,70,2013-07-15 21:53:00
4:53 PM,91.0,43.0,19,29.78,10.0,East,13.8,-,N/A,,Partly Cloudy,100,2013-07-15 22:53:00
5:53 PM,89.1,43.0,20,29.78,10.0,ESE,11.5,19.6,N/A,,Partly Cloudy,110,2013-07-15 23:53:00
6:53 PM,84.9,41.0,21,29.79,10.0,ESE,9.2,-,N/A,,Clear,110,2013-07-16 00:53:00
7:53 PM,82.9,48.0,29,29.78,10.0,ESE,11.5,-,N/A,,Clear,120,2013-07-16 01:53:00
8:53 PM,75.9,48.0,37,29.81,10.0,East,4.6,-,N/A,,Clear,80,2013-07-16 02:53:00
9:53 PM,72.0,48.9,44,29.82,10.0,Calm,Calm,-,N/A,,Clear,0,2013-07-16 03:53:00
10:53 PM,70.0,48.9,47,29.84,10.0,Calm,Calm,-,N/A,,Clear,0,2013-07-16 04:53:00
11:53 PM,71.1,48.9,45,29.84,10.0,Calm,Calm,-,N/A,,Clear,0,2013-07-16 05:53:00